Year,Month,Day,Hour,Minute,Value (Times are PST for temperature in C)
2018,05,03,00,00,11.00
2018,05,03,00,01,11.00
2018,05,03,00,02,11.00
2018,05,03,00,03,11.00
2018,05,03,00,04,11.10
2018,05,03,00,05,11.10
2018,05,03,00,06,11.10
2018,05,03,00,07,11.10
2018,05,03,00,08,11.10
2018,05,03,00,09,11.10
2018,05,03,00,10,11.10
2018,05,03,00,11,11.10
2018,05,03,00,12,11.20
2018,05,03,00,13,11.10
2018,05,03,00,14,11.20
2018,05,03,00,15,11.20
2018,05,03,00,16,11.20
2018,05,03,00,17,11.20
2018,05,03,00,18,11.20
2018,05,03,00,19,11.20
2018,05,03,00,20,11.20
2018,05,03,00,21,11.20
2018,05,03,00,22,11.10
2018,05,03,00,23,11.10
2018,05,03,00,24,11.10
2018,05,03,00,25,11.10
2018,05,03,00,26,11.10
2018,05,03,00,27,11.10
2018,05,03,00,28,11.10
2018,05,03,00,29,11.10
2018,05,03,00,30,11.10
2018,05,03,00,31,11.10
2018,05,03,00,32,11.00
2018,05,03,00,33,11.00
2018,05,03,00,34,11.00
2018,05,03,00,35,10.90
2018,05,03,00,36,10.90
2018,05,03,00,37,10.90
2018,05,03,00,38,10.90
2018,05,03,00,39,10.80
2018,05,03,00,40,10.80
2018,05,03,00,41,10.80
2018,05,03,00,42,10.80
2018,05,03,00,43,10.80
2018,05,03,00,44,10.70
2018,05,03,00,45,10.70
2018,05,03,00,46,10.70
2018,05,03,00,47,10.70
2018,05,03,00,48,10.70
2018,05,03,00,49,10.60
2018,05,03,00,50,10.60
2018,05,03,00,51,10.60
2018,05,03,00,52,10.50
2018,05,03,00,53,10.50
2018,05,03,00,54,10.40
2018,05,03,00,55,10.40
2018,05,03,00,56,10.40
2018,05,03,00,57,10.30
2018,05,03,00,58,10.30
2018,05,03,00,59,10.30
2018,05,03,01,00,10.30
2018,05,03,01,01,10.20
2018,05,03,01,02,10.20
2018,05,03,01,03,10.20
2018,05,03,01,04,10.20
2018,05,03,01,05,10.20
2018,05,03,01,06,10.20
2018,05,03,01,07,10.20
2018,05,03,01,08,10.20
2018,05,03,01,09,10.20
2018,05,03,01,10,10.20
2018,05,03,01,11,10.20
2018,05,03,01,12,10.20
2018,05,03,01,13,10.20
2018,05,03,01,14,10.20
2018,05,03,01,15,10.20
2018,05,03,01,16,10.20
2018,05,03,01,17,10.20
2018,05,03,01,18,10.20
2018,05,03,01,19,10.20
2018,05,03,01,20,10.20
2018,05,03,01,21,10.10
2018,05,03,01,22,10.10
2018,05,03,01,23,10.10
2018,05,03,01,24,10.10
2018,05,03,01,25,10.10
2018,05,03,01,26,10.10
2018,05,03,01,27,10.10
2018,05,03,01,28,10.10
2018,05,03,01,29,10.10
2018,05,03,01,30,10.10
2018,05,03,01,31,10.10
2018,05,03,01,32,10.10
2018,05,03,01,33,10.10
2018,05,03,01,34,10.10
2018,05,03,01,35,10.10
2018,05,03,01,36,10.10
2018,05,03,01,37,10.10
2018,05,03,01,38,10.10
2018,05,03,01,39,10.10
2018,05,03,01,40,10.10
2018,05,03,01,41,10.10
2018,05,03,01,42,10.00
2018,05,03,01,43,10.00
2018,05,03,01,44,10.00
2018,05,03,01,45,10.00
2018,05,03,01,46,10.00
2018,05,03,01,47,10.00
2018,05,03,01,48,9.90
2018,05,03,01,49,9.90
2018,05,03,01,50,9.90
2018,05,03,01,51,9.90
2018,05,03,01,52,9.80
2018,05,03,01,53,9.80
2018,05,03,01,54,9.80
2018,05,03,01,55,9.80
2018,05,03,01,56,9.80
2018,05,03,01,57,9.80
2018,05,03,01,58,9.80
2018,05,03,01,59,9.70
2018,05,03,02,00,9.70
2018,05,03,02,01,9.70
2018,05,03,02,02,9.70
2018,05,03,02,03,9.70
2018,05,03,02,04,9.70
2018,05,03,02,05,9.70
2018,05,03,02,06,9.70
2018,05,03,02,07,9.70
2018,05,03,02,08,9.70
2018,05,03,02,09,9.70
2018,05,03,02,10,9.60
2018,05,03,02,11,9.60
2018,05,03,02,12,9.60
2018,05,03,02,13,9.60
2018,05,03,02,14,9.60
2018,05,03,02,15,9.50
2018,05,03,02,16,9.50
2018,05,03,02,17,9.40
2018,05,03,02,18,9.40
2018,05,03,02,19,9.40
2018,05,03,02,20,9.40
2018,05,03,02,21,9.30
2018,05,03,02,22,9.30
2018,05,03,02,23,9.30
2018,05,03,02,24,9.30
2018,05,03,02,25,9.30
2018,05,03,02,26,9.30
2018,05,03,02,27,9.30
2018,05,03,02,28,9.30
2018,05,03,02,29,9.30
2018,05,03,02,30,9.30
2018,05,03,02,31,9.30
2018,05,03,02,32,9.30
2018,05,03,02,33,9.30
2018,05,03,02,34,9.30
2018,05,03,02,35,9.30
2018,05,03,02,36,9.40
2018,05,03,02,37,9.40
2018,05,03,02,38,9.40
2018,05,03,02,39,9.40
2018,05,03,02,40,9.50
2018,05,03,02,41,9.50
2018,05,03,02,42,9.50
2018,05,03,02,43,9.50
2018,05,03,02,44,9.40
2018,05,03,02,45,9.40
2018,05,03,02,46,9.40
2018,05,03,02,47,9.40
2018,05,03,02,48,9.40
2018,05,03,02,49,9.40
2018,05,03,02,50,9.40
2018,05,03,02,51,9.40
2018,05,03,02,52,9.40
2018,05,03,02,53,9.30
2018,05,03,02,54,9.30
2018,05,03,02,55,9.30
2018,05,03,02,56,9.30
2018,05,03,02,57,9.30
2018,05,03,02,58,9.30
2018,05,03,02,59,9.30
2018,05,03,03,00,9.30
2018,05,03,03,01,9.30
2018,05,03,03,02,9.20
2018,05,03,03,03,9.20
2018,05,03,03,04,9.20
2018,05,03,03,05,9.20
2018,05,03,03,06,9.20
2018,05,03,03,07,9.20
2018,05,03,03,08,9.10
2018,05,03,03,09,9.10
2018,05,03,03,10,9.10
2018,05,03,03,11,9.00
2018,05,03,03,12,9.00
2018,05,03,03,13,9.00
2018,05,03,03,14,8.90
2018,05,03,03,15,8.90
2018,05,03,03,16,8.90
2018,05,03,03,17,8.90
2018,05,03,03,18,8.90
2018,05,03,03,19,8.90
2018,05,03,03,20,8.90
2018,05,03,03,21,8.90
2018,05,03,03,22,8.90
2018,05,03,03,23,8.90
2018,05,03,03,24,8.90
2018,05,03,03,25,8.90
2018,05,03,03,26,8.90
2018,05,03,03,27,8.90
2018,05,03,03,28,8.90
2018,05,03,03,29,8.90
2018,05,03,03,30,9.00
2018,05,03,03,31,8.90
2018,05,03,03,32,8.90
2018,05,03,03,33,8.90
2018,05,03,03,34,8.90
2018,05,03,03,35,8.90
2018,05,03,03,36,8.90
2018,05,03,03,37,8.90
2018,05,03,03,38,9.00
2018,05,03,03,39,9.00
2018,05,03,03,40,9.00
2018,05,03,03,41,9.10
2018,05,03,03,42,9.10
2018,05,03,03,43,9.00
2018,05,03,03,44,9.00
2018,05,03,03,45,8.90
2018,05,03,03,46,8.90
2018,05,03,03,47,8.80
2018,05,03,03,48,8.80
2018,05,03,03,49,8.70
2018,05,03,03,50,8.70
2018,05,03,03,51,8.60
2018,05,03,03,52,8.60
2018,05,03,03,53,8.60
2018,05,03,03,54,8.50
2018,05,03,03,55,8.50
2018,05,03,03,56,8.50
2018,05,03,03,57,8.50
2018,05,03,03,58,8.40
2018,05,03,03,59,8.40
2018,05,03,04,00,8.40
2018,05,03,04,01,8.40
2018,05,03,04,02,8.40
2018,05,03,04,03,8.40
2018,05,03,04,04,8.40
2018,05,03,04,05,8.40
2018,05,03,04,06,8.40
2018,05,03,04,07,8.40
2018,05,03,04,08,8.40
2018,05,03,04,09,8.40
2018,05,03,04,10,8.40
2018,05,03,04,11,8.40
2018,05,03,04,12,8.40
2018,05,03,04,13,8.40
2018,05,03,04,14,8.40
2018,05,03,04,15,8.40
2018,05,03,04,16,8.40
2018,05,03,04,17,8.40
2018,05,03,04,18,8.40
2018,05,03,04,19,8.40
2018,05,03,04,20,8.40
2018,05,03,04,21,8.40
2018,05,03,04,22,8.40
2018,05,03,04,23,8.40
2018,05,03,04,24,8.40
2018,05,03,04,25,8.40
2018,05,03,04,26,8.40
2018,05,03,04,27,8.40
2018,05,03,04,28,8.40
2018,05,03,04,29,8.40
2018,05,03,04,30,8.40
2018,05,03,04,31,8.40
2018,05,03,04,32,8.40
2018,05,03,04,33,8.40
2018,05,03,04,34,8.40
2018,05,03,04,35,8.50
2018,05,03,04,36,8.50
2018,05,03,04,37,8.50
2018,05,03,04,38,8.50
2018,05,03,04,39,8.50
2018,05,03,04,40,8.50
2018,05,03,04,41,8.50
2018,05,03,04,42,8.60
2018,05,03,04,43,8.60
2018,05,03,04,44,8.60
2018,05,03,04,45,8.60
2018,05,03,04,46,8.70
2018,05,03,04,47,8.70
2018,05,03,04,48,8.70
2018,05,03,04,49,8.70
2018,05,03,04,50,8.70
2018,05,03,04,51,8.70
2018,05,03,04,52,8.70
2018,05,03,04,53,8.70
2018,05,03,04,54,8.70
2018,05,03,04,55,8.70
2018,05,03,04,56,8.70
2018,05,03,04,57,8.70
2018,05,03,04,58,8.70
2018,05,03,04,59,8.70
2018,05,03,05,00,8.70
2018,05,03,05,01,8.70
2018,05,03,05,02,8.60
2018,05,03,05,03,8.60
2018,05,03,05,04,8.50
2018,05,03,05,05,8.50
2018,05,03,05,06,8.40
2018,05,03,05,07,8.40
2018,05,03,05,08,8.30
2018,05,03,05,09,8.30
2018,05,03,05,10,8.30
2018,05,03,05,11,8.20
2018,05,03,05,12,8.20
2018,05,03,05,13,8.20
2018,05,03,05,14,8.20
2018,05,03,05,15,8.20
2018,05,03,05,16,8.20
2018,05,03,05,17,8.20
2018,05,03,05,18,8.20
2018,05,03,05,19,8.10
2018,05,03,05,20,8.10
2018,05,03,05,21,8.10
2018,05,03,05,22,8.10
2018,05,03,05,23,8.10
2018,05,03,05,24,8.00
2018,05,03,05,25,8.00
2018,05,03,05,26,8.00
2018,05,03,05,27,8.00
2018,05,03,05,28,8.00
2018,05,03,05,29,8.00
2018,05,03,05,30,8.00
2018,05,03,05,31,8.00
2018,05,03,05,32,8.00
2018,05,03,05,33,7.90
2018,05,03,05,34,8.00
2018,05,03,05,35,8.00
2018,05,03,05,36,8.00
2018,05,03,05,37,8.00
2018,05,03,05,38,8.00
2018,05,03,05,39,8.00
2018,05,03,05,40,8.00
2018,05,03,05,41,8.00
2018,05,03,05,42,8.00
2018,05,03,05,43,8.00
2018,05,03,05,44,8.00
2018,05,03,05,45,8.10
2018,05,03,05,46,8.10
2018,05,03,05,47,8.10
2018,05,03,05,48,8.10
2018,05,03,05,49,8.10
2018,05,03,05,50,8.10
2018,05,03,05,51,8.10
2018,05,03,05,52,8.10
2018,05,03,05,53,8.10
2018,05,03,05,54,8.10
2018,05,03,05,55,8.10
2018,05,03,05,56,8.10
2018,05,03,05,57,8.10
2018,05,03,05,58,8.00
2018,05,03,05,59,8.00
2018,05,03,06,00,8.00
2018,05,03,06,01,7.90
2018,05,03,06,02,7.90
2018,05,03,06,03,7.90
2018,05,03,06,04,7.90
2018,05,03,06,05,7.90
2018,05,03,06,06,7.90
2018,05,03,06,07,7.80
2018,05,03,06,08,7.80
2018,05,03,06,09,7.80
2018,05,03,06,10,7.80
2018,05,03,06,11,7.80
2018,05,03,06,12,7.80
2018,05,03,06,13,7.80
2018,05,03,06,14,7.80
2018,05,03,06,15,7.80
2018,05,03,06,16,7.80
2018,05,03,06,17,7.80
2018,05,03,06,18,7.80
2018,05,03,06,19,7.80
2018,05,03,06,20,7.80
2018,05,03,06,21,7.80
2018,05,03,06,22,7.80
2018,05,03,06,23,7.80
2018,05,03,06,24,7.80
2018,05,03,06,25,7.80
2018,05,03,06,26,7.80
2018,05,03,06,27,7.80
2018,05,03,06,28,7.80
2018,05,03,06,29,7.80
2018,05,03,06,30,7.70
2018,05,03,06,31,7.80
2018,05,03,06,32,7.80
2018,05,03,06,33,7.80
2018,05,03,06,34,7.80
2018,05,03,06,35,7.80
2018,05,03,06,36,7.80
2018,05,03,06,37,7.80
2018,05,03,06,38,7.80
2018,05,03,06,39,7.80
2018,05,03,06,40,7.80
2018,05,03,06,41,7.90
2018,05,03,06,42,7.90
2018,05,03,06,43,7.80
2018,05,03,06,44,7.80
2018,05,03,06,45,7.80
2018,05,03,06,46,7.80
2018,05,03,06,47,7.80
2018,05,03,06,48,7.80
2018,05,03,06,49,7.80
2018,05,03,06,50,7.80
2018,05,03,06,51,7.80
2018,05,03,06,52,7.80
2018,05,03,06,53,7.80
2018,05,03,06,54,7.80
2018,05,03,06,55,7.80
2018,05,03,06,56,7.80
2018,05,03,06,57,7.80
2018,05,03,06,58,7.80
2018,05,03,06,59,7.80
2018,05,03,07,00,7.80
2018,05,03,07,01,7.80
2018,05,03,07,02,7.80
2018,05,03,07,03,7.80
2018,05,03,07,04,7.80
2018,05,03,07,05,7.80
2018,05,03,07,06,7.80
2018,05,03,07,07,7.80
2018,05,03,07,08,7.90
2018,05,03,07,09,7.90
2018,05,03,07,10,7.90
2018,05,03,07,11,7.90
2018,05,03,07,12,8.00
2018,05,03,07,13,8.00
2018,05,03,07,14,8.10
2018,05,03,07,15,8.10
2018,05,03,07,16,8.20
2018,05,03,07,17,8.30
2018,05,03,07,18,8.30
2018,05,03,07,19,8.30
2018,05,03,07,20,8.30
2018,05,03,07,21,8.30
2018,05,03,07,22,8.30
2018,05,03,07,23,8.40
2018,05,03,07,24,8.40
2018,05,03,07,25,8.40
2018,05,03,07,26,8.40
2018,05,03,07,27,8.40
2018,05,03,07,28,8.40
2018,05,03,07,29,8.40
2018,05,03,07,30,8.40
2018,05,03,07,31,8.50
2018,05,03,07,32,8.50
2018,05,03,07,33,8.50
2018,05,03,07,34,8.60
2018,05,03,07,35,8.60
2018,05,03,07,36,8.60
2018,05,03,07,37,8.70
2018,05,03,07,38,8.70
2018,05,03,07,39,8.70
2018,05,03,07,40,8.70
2018,05,03,07,41,8.80
2018,05,03,07,42,8.80
2018,05,03,07,43,8.80
2018,05,03,07,44,8.90
2018,05,03,07,45,8.90
2018,05,03,07,46,8.90
2018,05,03,07,47,9.00
2018,05,03,07,48,9.00
2018,05,03,07,49,9.10
2018,05,03,07,50,9.10
2018,05,03,07,51,9.10
2018,05,03,07,52,9.20
2018,05,03,07,53,9.20
2018,05,03,07,54,9.20
2018,05,03,07,55,9.30
2018,05,03,07,56,9.30
2018,05,03,07,57,9.30
2018,05,03,07,58,9.40
2018,05,03,07,59,9.40
2018,05,03,08,00,9.40
2018,05,03,08,01,9.40
2018,05,03,08,02,9.50
2018,05,03,08,03,9.60
2018,05,03,08,04,9.60
2018,05,03,08,05,9.70
2018,05,03,08,06,9.70
2018,05,03,08,07,9.70
2018,05,03,08,08,9.80
2018,05,03,08,09,9.80
2018,05,03,08,10,9.80
2018,05,03,08,11,9.90
2018,05,03,08,12,9.90
2018,05,03,08,13,10.00
2018,05,03,08,14,10.00
2018,05,03,08,15,10.10
2018,05,03,08,16,10.10
2018,05,03,08,17,10.20
2018,05,03,08,18,10.20
2018,05,03,08,19,10.30
2018,05,03,08,20,10.30
2018,05,03,08,21,10.40
2018,05,03,08,22,10.40
2018,05,03,08,23,10.50
2018,05,03,08,24,10.50
2018,05,03,08,25,10.60
2018,05,03,08,26,10.60
2018,05,03,08,27,10.70
2018,05,03,08,28,10.70
2018,05,03,08,29,10.80
2018,05,03,08,30,10.80
2018,05,03,08,31,10.90
2018,05,03,08,32,10.90
2018,05,03,08,33,10.90
2018,05,03,08,34,11.00
2018,05,03,08,35,11.00
2018,05,03,08,36,11.10
2018,05,03,08,37,11.10
2018,05,03,08,38,11.10
2018,05,03,08,39,11.10
2018,05,03,08,40,11.20
2018,05,03,08,41,11.20
2018,05,03,08,42,11.20
2018,05,03,08,43,11.30
2018,05,03,08,44,11.30
2018,05,03,08,45,11.30
2018,05,03,08,46,11.30
2018,05,03,08,47,11.30
2018,05,03,08,48,11.40
2018,05,03,08,49,11.40
2018,05,03,08,50,11.40
2018,05,03,08,51,11.50
2018,05,03,08,52,11.50
2018,05,03,08,53,11.60
2018,05,03,08,54,11.60
2018,05,03,08,55,11.70
2018,05,03,08,56,11.70
2018,05,03,08,57,11.80
2018,05,03,08,58,11.90
2018,05,03,08,59,12.10
2018,05,03,09,00,12.20
2018,05,03,09,01,12.30
2018,05,03,09,02,12.40
2018,05,03,09,03,12.50
2018,05,03,09,04,12.60
2018,05,03,09,05,12.70
2018,05,03,09,06,12.80
2018,05,03,09,07,12.80
2018,05,03,09,08,12.90
2018,05,03,09,09,12.80
2018,05,03,09,10,12.80
2018,05,03,09,11,12.80
2018,05,03,09,12,12.80
2018,05,03,09,13,12.70
2018,05,03,09,14,12.70
2018,05,03,09,15,12.70
2018,05,03,09,16,12.70
2018,05,03,09,17,12.70
2018,05,03,09,18,12.70
2018,05,03,09,19,12.70
2018,05,03,09,20,12.70
2018,05,03,09,21,12.80
2018,05,03,09,22,12.90
2018,05,03,09,23,13.00
2018,05,03,09,24,13.10
2018,05,03,09,25,13.10
2018,05,03,09,26,13.10
2018,05,03,09,27,13.20
2018,05,03,09,28,13.20
2018,05,03,09,29,13.30
2018,05,03,09,30,13.30
2018,05,03,09,31,13.20
2018,05,03,09,32,13.20
2018,05,03,09,33,13.20
2018,05,03,09,34,13.30
2018,05,03,09,35,13.30
2018,05,03,09,36,13.20
2018,05,03,09,37,13.20
2018,05,03,09,38,13.30
2018,05,03,09,39,13.30
2018,05,03,09,40,13.20
2018,05,03,09,41,13.10
2018,05,03,09,42,13.10
2018,05,03,09,43,13.10
2018,05,03,09,44,13.10
2018,05,03,09,45,13.10
2018,05,03,09,46,13.10
2018,05,03,09,47,13.10
2018,05,03,09,48,13.10
2018,05,03,09,49,13.10
2018,05,03,09,50,13.10
2018,05,03,09,51,13.00
2018,05,03,09,52,12.90
2018,05,03,09,53,12.90
2018,05,03,09,54,12.90
2018,05,03,09,55,12.80
2018,05,03,09,56,12.80
2018,05,03,09,57,12.90
2018,05,03,09,58,13.00
2018,05,03,09,59,13.10
2018,05,03,10,00,13.20
2018,05,03,10,01,13.20
2018,05,03,10,02,13.20
2018,05,03,10,03,13.20
2018,05,03,10,04,13.20
2018,05,03,10,05,13.20
2018,05,03,10,06,13.20
2018,05,03,10,07,13.00
2018,05,03,10,08,12.90
2018,05,03,10,09,12.90
2018,05,03,10,10,12.80
2018,05,03,10,11,12.80
2018,05,03,10,12,12.80
2018,05,03,10,13,12.70
2018,05,03,10,14,12.70
2018,05,03,10,15,12.60
2018,05,03,10,16,12.60
2018,05,03,10,17,12.60
2018,05,03,10,18,12.60
2018,05,03,10,19,12.60
2018,05,03,10,20,12.60
2018,05,03,10,21,12.60
2018,05,03,10,22,12.60
2018,05,03,10,23,12.60
2018,05,03,10,24,12.60
2018,05,03,10,25,12.70
2018,05,03,10,26,12.70
2018,05,03,10,27,12.70
2018,05,03,10,28,12.80
2018,05,03,10,29,12.90
2018,05,03,10,30,13.00
2018,05,03,10,31,13.00
2018,05,03,10,32,13.00
2018,05,03,10,33,13.00
2018,05,03,10,34,13.10
2018,05,03,10,35,13.20
2018,05,03,10,36,13.20
2018,05,03,10,37,13.20
2018,05,03,10,38,13.20
2018,05,03,10,39,13.30
2018,05,03,10,40,13.30
2018,05,03,10,41,13.30
2018,05,03,10,42,13.30
2018,05,03,10,43,13.20
2018,05,03,10,44,13.10
2018,05,03,10,45,13.00
2018,05,03,10,46,13.00
2018,05,03,10,47,13.10
2018,05,03,10,48,13.10
2018,05,03,10,49,13.10
2018,05,03,10,50,13.00
2018,05,03,10,51,13.00
2018,05,03,10,52,13.00
2018,05,03,10,53,13.10
2018,05,03,10,54,13.10
2018,05,03,10,55,13.20
2018,05,03,10,56,13.30
2018,05,03,10,57,13.30
2018,05,03,10,58,13.30
2018,05,03,10,59,13.30
2018,05,03,11,00,13.30
2018,05,03,11,01,13.20
2018,05,03,11,02,13.20
2018,05,03,11,03,13.10
2018,05,03,11,04,13.10
2018,05,03,11,05,13.10
2018,05,03,11,06,13.10
2018,05,03,11,07,13.10
2018,05,03,11,08,13.20
2018,05,03,11,09,13.20
2018,05,03,11,10,13.20
2018,05,03,11,11,13.30
2018,05,03,11,12,13.30
2018,05,03,11,13,13.20
2018,05,03,11,14,13.20
2018,05,03,11,15,13.10
2018,05,03,11,16,13.10
2018,05,03,11,17,13.10
2018,05,03,11,18,13.10
2018,05,03,11,19,13.10
2018,05,03,11,20,13.20
2018,05,03,11,21,13.20
2018,05,03,11,22,13.20
2018,05,03,11,23,13.20
2018,05,03,11,24,13.20
2018,05,03,11,25,13.20
2018,05,03,11,26,13.20
2018,05,03,11,27,13.30
2018,05,03,11,28,13.30
2018,05,03,11,29,13.20
2018,05,03,11,30,13.20
2018,05,03,11,31,13.20
2018,05,03,11,32,13.20
2018,05,03,11,33,13.30
2018,05,03,11,34,13.40
2018,05,03,11,35,13.40
2018,05,03,11,36,13.50
2018,05,03,11,37,13.60
2018,05,03,11,38,13.70
2018,05,03,11,39,13.70
2018,05,03,11,40,13.60
2018,05,03,11,41,13.60
2018,05,03,11,42,13.70
2018,05,03,11,43,13.70
2018,05,03,11,44,13.70
2018,05,03,11,45,13.70
2018,05,03,11,46,13.70
2018,05,03,11,47,13.70
2018,05,03,11,48,13.80
2018,05,03,11,49,13.80
2018,05,03,11,50,13.90
2018,05,03,11,51,13.90
2018,05,03,11,52,13.90
2018,05,03,11,53,13.90
2018,05,03,11,54,13.90
2018,05,03,11,55,13.90
2018,05,03,11,56,14.00
2018,05,03,11,57,14.10
2018,05,03,11,58,14.10
2018,05,03,11,59,14.10
2018,05,03,12,00,14.10
2018,05,03,12,01,14.00
2018,05,03,12,02,14.00
2018,05,03,12,03,13.90
2018,05,03,12,04,13.90
2018,05,03,12,05,13.80
2018,05,03,12,06,13.70
2018,05,03,12,07,13.60
2018,05,03,12,08,13.60
2018,05,03,12,09,13.70
2018,05,03,12,10,13.70
2018,05,03,12,11,13.70
2018,05,03,12,12,13.60
2018,05,03,12,13,13.60
2018,05,03,12,14,13.50
2018,05,03,12,15,13.50
2018,05,03,12,16,13.50
2018,05,03,12,17,13.40
2018,05,03,12,18,13.50
2018,05,03,12,19,13.40
2018,05,03,12,20,13.40
2018,05,03,12,21,13.50
2018,05,03,12,22,13.60
2018,05,03,12,23,13.60
2018,05,03,12,24,13.70
2018,05,03,12,25,13.80
2018,05,03,12,26,13.80
2018,05,03,12,27,13.90
2018,05,03,12,28,14.00
2018,05,03,12,29,14.00
2018,05,03,12,30,14.10
2018,05,03,12,31,14.10
2018,05,03,12,32,14.10
2018,05,03,12,33,14.00
2018,05,03,12,34,14.00
2018,05,03,12,35,14.00
2018,05,03,12,36,14.00
2018,05,03,12,37,14.00
2018,05,03,12,38,14.00
2018,05,03,12,39,13.90
2018,05,03,12,40,13.90
2018,05,03,12,41,13.90
2018,05,03,12,42,13.90
2018,05,03,12,43,13.80
2018,05,03,12,44,13.80
2018,05,03,12,45,13.70
2018,05,03,12,46,13.70
2018,05,03,12,47,13.70
2018,05,03,12,48,13.70
2018,05,03,12,49,13.60
2018,05,03,12,50,13.50
2018,05,03,12,51,13.50
2018,05,03,12,52,13.50
2018,05,03,12,53,13.50
2018,05,03,12,54,13.50
2018,05,03,12,55,13.40
2018,05,03,12,56,13.40
2018,05,03,12,57,13.40
2018,05,03,12,58,13.40
2018,05,03,12,59,13.50
2018,05,03,13,00,13.50
2018,05,03,13,01,13.50
2018,05,03,13,02,13.40
2018,05,03,13,03,13.40
2018,05,03,13,04,13.40
2018,05,03,13,05,13.40
2018,05,03,13,06,13.50
2018,05,03,13,07,13.60
2018,05,03,13,08,13.70
2018,05,03,13,09,13.60
2018,05,03,13,10,13.60
2018,05,03,13,11,13.60
2018,05,03,13,12,13.60
2018,05,03,13,13,13.60
2018,05,03,13,14,13.60
2018,05,03,13,15,13.60
2018,05,03,13,16,13.60
2018,05,03,13,17,13.60
2018,05,03,13,18,13.70
2018,05,03,13,19,13.70
2018,05,03,13,20,13.80
2018,05,03,13,21,13.80
2018,05,03,13,22,13.90
2018,05,03,13,23,14.00
2018,05,03,13,24,14.10
2018,05,03,13,25,14.20
2018,05,03,13,26,14.10
2018,05,03,13,27,14.00
2018,05,03,13,28,13.90
2018,05,03,13,29,13.90
2018,05,03,13,30,13.80
2018,05,03,13,31,13.80
2018,05,03,13,32,13.80
2018,05,03,13,33,13.80
2018,05,03,13,34,13.80
2018,05,03,13,35,13.80
2018,05,03,13,36,13.80
2018,05,03,13,37,13.80
2018,05,03,13,38,13.80
2018,05,03,13,39,13.90
2018,05,03,13,40,14.00
2018,05,03,13,41,14.00
2018,05,03,13,42,14.10
2018,05,03,13,43,14.10
2018,05,03,13,44,14.20
2018,05,03,13,45,14.20
2018,05,03,13,46,14.20
2018,05,03,13,47,14.20
2018,05,03,13,48,14.20
2018,05,03,13,49,14.20
2018,05,03,13,50,14.20
2018,05,03,13,51,14.30
2018,05,03,13,52,14.30
2018,05,03,13,53,14.30
2018,05,03,13,54,14.40
2018,05,03,13,55,14.40
2018,05,03,13,56,14.50
2018,05,03,13,57,14.50
2018,05,03,13,58,14.60
2018,05,03,13,59,14.60
2018,05,03,14,00,14.70
2018,05,03,14,01,14.70
2018,05,03,14,02,14.80
2018,05,03,14,03,14.80
2018,05,03,14,04,14.80
2018,05,03,14,05,14.80
2018,05,03,14,06,14.90
2018,05,03,14,07,14.90
2018,05,03,14,08,15.00
2018,05,03,14,09,15.00
2018,05,03,14,10,15.00
2018,05,03,14,11,15.00
2018,05,03,14,12,14.90
2018,05,03,14,13,14.90
2018,05,03,14,14,14.80
2018,05,03,14,15,14.70
2018,05,03,14,16,14.60
2018,05,03,14,17,14.70
2018,05,03,14,18,14.70
2018,05,03,14,19,14.60
2018,05,03,14,20,14.60
2018,05,03,14,21,14.60
2018,05,03,14,22,14.60
2018,05,03,14,23,14.60
2018,05,03,14,24,14.70
2018,05,03,14,25,14.70
2018,05,03,14,26,14.80
2018,05,03,14,27,14.80
2018,05,03,14,28,14.80
2018,05,03,14,29,14.90
2018,05,03,14,30,14.90
2018,05,03,14,31,15.00
2018,05,03,14,32,15.10
2018,05,03,14,33,15.10
2018,05,03,14,34,15.10
2018,05,03,14,35,15.10
2018,05,03,14,36,15.20
2018,05,03,14,37,15.20
2018,05,03,14,38,15.20
2018,05,03,14,39,15.20
2018,05,03,14,40,15.30
2018,05,03,14,41,15.30
2018,05,03,14,42,15.20
2018,05,03,14,43,15.20
2018,05,03,14,44,15.20
2018,05,03,14,45,15.20
2018,05,03,14,46,15.30
2018,05,03,14,47,15.30
2018,05,03,14,48,15.30
2018,05,03,14,49,15.30
2018,05,03,14,50,15.30
2018,05,03,14,51,15.40
2018,05,03,14,52,15.40
2018,05,03,14,53,15.40
2018,05,03,14,54,15.50
2018,05,03,14,55,15.50
2018,05,03,14,56,15.60
2018,05,03,14,57,15.60
2018,05,03,14,58,15.60
2018,05,03,14,59,15.60
2018,05,03,15,00,15.60
2018,05,03,15,01,15.70
2018,05,03,15,02,15.70
2018,05,03,15,03,15.70
2018,05,03,15,04,15.70
2018,05,03,15,05,15.60
2018,05,03,15,06,15.60
2018,05,03,15,07,15.60
2018,05,03,15,08,15.70
2018,05,03,15,09,15.80
2018,05,03,15,10,15.80
2018,05,03,15,11,15.80
2018,05,03,15,12,15.90
2018,05,03,15,13,15.90
2018,05,03,15,14,15.90
2018,05,03,15,15,15.90
2018,05,03,15,16,15.90
2018,05,03,15,17,16.00
2018,05,03,15,18,16.10
2018,05,03,15,19,16.10
2018,05,03,15,20,16.10
2018,05,03,15,21,16.10
2018,05,03,15,22,16.20
2018,05,03,15,23,16.20
2018,05,03,15,24,16.30
2018,05,03,15,25,16.30
2018,05,03,15,26,16.30
2018,05,03,15,27,16.20
2018,05,03,15,28,16.10
2018,05,03,15,29,16.10
2018,05,03,15,30,16.10
2018,05,03,15,31,16.00
2018,05,03,15,32,16.00
2018,05,03,15,33,16.10
2018,05,03,15,34,16.20
2018,05,03,15,35,16.20
2018,05,03,15,36,16.30
2018,05,03,15,37,16.30
2018,05,03,15,38,16.30
2018,05,03,15,39,16.30
2018,05,03,15,40,16.30
2018,05,03,15,41,16.30
2018,05,03,15,42,16.30
2018,05,03,15,43,16.40
2018,05,03,15,44,16.40
2018,05,03,15,45,16.40
2018,05,03,15,46,16.30
2018,05,03,15,47,16.30
2018,05,03,15,48,16.20
2018,05,03,15,49,16.10
2018,05,03,15,50,16.00
2018,05,03,15,51,16.00
2018,05,03,15,52,15.90
2018,05,03,15,53,15.80
2018,05,03,15,54,15.80
2018,05,03,15,55,15.80
2018,05,03,15,56,15.80
2018,05,03,15,57,15.80
2018,05,03,15,58,15.80
2018,05,03,15,59,15.80
2018,05,03,16,00,15.80
2018,05,03,16,01,15.80
2018,05,03,16,02,15.70
2018,05,03,16,03,15.70
2018,05,03,16,04,15.70
2018,05,03,16,05,15.80
2018,05,03,16,06,15.80
2018,05,03,16,07,15.90
2018,05,03,16,08,15.90
2018,05,03,16,09,15.90
2018,05,03,16,10,15.90
2018,05,03,16,11,15.90
2018,05,03,16,12,16.00
2018,05,03,16,13,16.10
2018,05,03,16,14,16.00
2018,05,03,16,15,16.00
2018,05,03,16,16,15.90
2018,05,03,16,17,15.90
2018,05,03,16,18,16.00
2018,05,03,16,19,16.00
2018,05,03,16,20,16.00
2018,05,03,16,21,16.10
2018,05,03,16,22,16.10
2018,05,03,16,23,16.20
2018,05,03,16,24,16.20
2018,05,03,16,25,16.20
2018,05,03,16,26,16.30
2018,05,03,16,27,16.30
2018,05,03,16,28,16.40
2018,05,03,16,29,16.50
2018,05,03,16,30,16.50
2018,05,03,16,31,16.60
2018,05,03,16,32,16.60
2018,05,03,16,33,16.60
2018,05,03,16,34,16.60
2018,05,03,16,35,16.60
2018,05,03,16,36,16.60
2018,05,03,16,37,16.50
2018,05,03,16,38,16.50
2018,05,03,16,39,16.50
2018,05,03,16,40,16.40
2018,05,03,16,41,16.40
2018,05,03,16,42,16.50
2018,05,03,16,43,16.50
2018,05,03,16,44,16.60
2018,05,03,16,45,16.50
2018,05,03,16,46,16.50
2018,05,03,16,47,16.50
2018,05,03,16,48,16.40
2018,05,03,16,49,16.40
2018,05,03,16,50,16.40
2018,05,03,16,51,16.50
2018,05,03,16,52,16.50
2018,05,03,16,53,16.60
2018,05,03,16,54,16.60
2018,05,03,16,55,16.60
2018,05,03,16,56,16.60
2018,05,03,16,57,16.60
2018,05,03,16,58,16.50
2018,05,03,16,59,16.50
2018,05,03,17,00,16.50
2018,05,03,17,01,16.50
2018,05,03,17,02,16.40
2018,05,03,17,03,16.40
2018,05,03,17,04,16.40
2018,05,03,17,05,16.40
2018,05,03,17,06,16.40
2018,05,03,17,07,16.40
2018,05,03,17,08,16.50
2018,05,03,17,09,16.50
2018,05,03,17,10,16.60
2018,05,03,17,11,16.60
2018,05,03,17,12,16.60
2018,05,03,17,13,16.60
2018,05,03,17,14,16.60
2018,05,03,17,15,16.60
2018,05,03,17,16,16.60
2018,05,03,17,17,16.60
2018,05,03,17,18,16.60
2018,05,03,17,19,16.60
2018,05,03,17,20,16.60
2018,05,03,17,21,16.60
2018,05,03,17,22,16.60
2018,05,03,17,23,16.60
2018,05,03,17,24,16.70
2018,05,03,17,25,16.70
2018,05,03,17,26,16.70
2018,05,03,17,27,16.60
2018,05,03,17,28,16.50
2018,05,03,17,29,16.50
2018,05,03,17,30,16.50
2018,05,03,17,31,16.50
2018,05,03,17,32,16.40
2018,05,03,17,33,16.40
2018,05,03,17,34,16.40
2018,05,03,17,35,16.50
2018,05,03,17,36,16.50